Date,TemperatureHighF,TemperatureAvgF,TemperatureLowF,DewpointHighF,DewpointAvgF,DewpointLowF,HumidityHigh,HumidityAvg,HumidityLow,PressureMaxIn,PressureMinIn,WindSpeedMaxMPH,WindSpeedAvgMPH,GustSpeedMaxMPH,PrecipitationSumIn
2013-1-1,42.6,38.0,32.2,31.3,28.9,24.2,83,70,61,30.00,29.89,8,2,8,0.00
2013-1-2,41.7,31.8,24.4,29.4,19.0,12.9,82,60,40,30.21,29.97,8,2,8,0.00
2013-1-3,45.3,29.4,17.6,24.1,18.0,14.0,88,64,37,30.22,30.10,8,2,8,0.00
2013-1-4,43.5,35.2,32.0,24.1,21.5,20.0,65,57,45,30.18,30.08,17,7,17,0.00
2013-1-5,50.4,37.4,28.9,27.1,22.5,20.0,73,56,34,30.36,30.13,15,3,15,0.00
2013-1-6,50.7,40.1,29.8,33.1,28.3,25.1,85,64,44,30.15,30.00,6,2,6,0.00
2013-1-7,46.6,37.2,24.4,31.8,25.9,21.0,89,64,46,30.42,30.13,8,3,8,0.00
2013-1-8,57.4,35.7,22.6,36.0,27.9,20.4,95,76,43,30.38,30.30,6,1,6,0.00
2013-1-9,51.6,38.2,24.6,43.5,32.7,23.9,99,82,53,30.37,30.19,12,2,12,0.00
2013-1-10,62.1,46.7,35.4,33.6,29.4,26.0,73,52,28,30.58,30.37,10,2,10,0.00
2013-1-11,47.5,41.7,38.5,42.9,35.3,29.1,99,79,60,30.45,30.07,8,3,8,0.04
2013-1-12,62.6,47.1,39.6,51.9,44.6,39.3,99,92,65,30.15,30.06,6,1,6,0.00
2013-1-13,66.0,51.7,41.9,55.9,49.5,41.6,99,93,69,30.06,29.91,6,1,6,0.01
2013-1-14,54.0,48.9,37.6,53.5,43.9,34.5,99,84,61,30.30,29.91,8,2,8,0.14
2013-1-15,41.0,37.4,33.6,37.7,35.7,33.4,99,94,84,30.32,30.13,6,1,6,0.35
2013-1-16,38.3,35.5,32.7,38.0,35.3,30.7,99,99,99,30.14,29.78,8,1,8,0.37
2013-1-17,45.0,38.8,34.7,39.2,31.1,25.2,99,75,52,30.11,29.96,9,2,9,0.00
2013-1-18,43.9,33.8,28.8,28.6,17.3,7.8,76,52,28,30.46,29.39,14,4,14,0.00
2013-1-19,62.4,43.2,27.7,30.3,25.0,19.0,78,53,21,30.34,29.90,10,2,10,0.00
2013-1-20,57.7,42.8,29.7,32.3,18.6,1.3,67,41,16,30.07,29.80,20,5,20,0.00
2013-1-21,43.3,31.6,24.4,21.4,16.8,8.7,75,55,34,30.07,29.78,15,4,15,0.00
2013-1-22,32.0,17.6,11.8,8.7,-2.2,-7.3,56,42,27,30.25,29.88,16,6,16,0.00
2013-1-23,27.7,17.9,10.0,11.4,0.9,-3.4,74,49,28,30.31,30.09,14,3,14,0.00
2013-1-24,32.9,20.1,12.6,17.1,7.9,-2.5,91,62,31,30.49,30.05,13,3,13,0.01
2013-1-25,48.9,17.2,11.3,27.4,9.1,-0.8,93,72,43,30.49,30.02,10,2,10,0.00
2013-1-26,38.8,24.8,16.5,26.7,20.8,14.1,94,85,60,30.41,30.04,4,1,4,0.04
2013-1-27,43.5,28.6,17.1,24.2,18.3,12.7,85,67,36,30.56,30.41,6,2,6,0.01
2013-1-28,45.0,36.5,29.8,43.0,34.2,24.1,99,91,75,30.42,30.02,5,2,5,0.08
2013-1-29,74.3,58.5,43.7,57.1,50.8,27.5,99,77,53,30.09,29.91,7,2,7,0.00
2013-1-30,70.3,58.7,54.7,62.3,55.8,49.5,99,90,74,29.91,29.20,17,4,17,1.03
2013-1-31,54.9,38.5,27.5,54.6,26.5,11.8,99,63,46,29.87,29.17,21,9,21,0.21
2013-2-1,28.9,23.4,16.0,25.1,10.9,2.9,96,60,44,30.35,29.80,17,6,17,0.00
2013-2-2,28.4,20.6,10.8,23.3,12.1,3.7,86,70,52,30.35,29.97,9,2,9,0.00
2013-2-3,35.6,28.1,22.1,30.6,23.9,14.0,99,84,59,29.98,29.78,17,3,17,0.00
2013-2-4,40.8,30.3,22.6,26.5,16.9,11.8,83,58,40,30.06,29.84,13,4,13,0.00
2013-2-5,40.8,33.3,29.7,34.6,30.4,25.1,99,89,76,29.91,29.81,5,1,5,0.00
2013-2-6,43.0,35.2,27.3,33.9,28.3,20.7,99,77,56,30.32,29.90,13,3,13,0.00
2013-2-7,40.8,32.3,23.9,28.4,24.1,19.6,88,72,54,30.40,30.17,8,2,8,0.00
2013-2-8,40.3,35.4,31.5,38.0,30.7,22.2,97,84,65,30.17,29.76,20,4,20,0.04
2013-2-9,45.0,33.2,22.8,22.6,17.9,12.2,76,55,30,30.37,29.95,17,6,17,0.00
2013-2-10,50.4,33.2,16.3,25.0,18.2,13.4,90,58,25,30.42,30.16,13,4,13,0.00
2013-2-11,65.8,49.6,34.2,51.3,37.3,18.7,99,69,19,30.17,29.66,14,4,14,0.13
2013-2-12,61.0,48.2,34.7,30.9,25.6,20.6,68,42,25,29.97,29.83,20,6,20,0.00
2013-2-13,46.8,35.4,28.6,33.0,28.9,23.5,99,78,53,29.92,29.65,6,1,6,0.08
2013-2-14,54.9,40.1,29.8,34.6,29.7,26.1,99,69,40,29.98,29.76,7,2,7,0.05
2013-2-15,55.9,40.6,30.4,37.1,32.1,15.8,99,74,43,30.44,29.90,6,1,6,0.04
2013-2-16,39.0,33.0,27.5,34.1,25.5,15.7,99,76,52,29.98,29.85,9,2,9,0.05
2013-2-17,40.3,25.1,21.6,17.1,11.7,5.4,75,57,42,30.19,29.84,20,7,20,0.00
2013-2-18,44.4,30.0,15.6,22.0,11.4,6.0,71,48,23,30.34,30.07,13,3,13,0.00
2013-2-19,52.5,39.7,30.2,42.3,29.1,20.2,86,66,49,30.07,29.65,18,5,18,0.05
2013-2-20,35.4,29.3,22.6,20.7,13.6,8.5,58,52,42,30.15,29.84,21,9,21,0.00
2013-2-21,37.9,28.1,21.7,18.2,14.1,9.6,77,56,40,30.32,30.11,13,5,13,0.00
2013-2-22,31.8,28.9,24.3,29.2,23.8,18.1,90,81,65,30.35,30.15,12,3,12,0.00
2013-2-23,46.9,37.2,31.5,41.4,34.9,29.0,99,92,78,30.15,29.81,8,2,8,0.01
2013-2-24,49.6,38.9,28.9,38.8,29.1,17.7,99,71,41,30.11,29.79,14,4,14,0.00
2013-2-25,47.3,34.1,22.5,25.7,21.3,17.6,86,62,35,30.20,30.11,10,2,10,0.00
2013-2-26,37.6,33.2,25.3,30.1,27.4,21.2,86,79,69,30.18,30.09,13,3,13,0.00
2013-2-27,56.1,41.5,36.0,38.2,32.0,30.1,79,70,46,30.10,29.60,13,4,13,0.08
2013-2-28,43.9,41.2,35.4,34.2,30.6,26.1,73,66,52,29.72,29.63,13,3,13,0.00
2013-3-1,42.4,38.1,32.5,30.2,27.6,22.4,73,66,53,29.89,29.71,13,4,13,0.00
2013-3-2,36.7,31.6,28.8,25.2,22.0,19.0,74,67,56,29.88,29.81,10,4,10,0.00
2013-3-3,43.0,32.7,27.5,21.4,18.6,16.2,72,57,37,29.92,29.80,10,5,11,0.00
2013-3-4,46.2,33.8,25.7,18.3,16.2,13.1,66,49,28,30.02,29.92,15,5,15,0.00
2013-3-5,55.6,39.6,26.6,31.3,19.6,9.3,93,48,17,30.16,29.77,13,3,13,0.00
2013-3-6,39.7,35.6,32.2,35.2,32.5,29.7,99,89,70,30.01,29.66,10,3,10,0.56
2013-3-7,48.9,40.7,34.9,31.6,28.7,21.0,78,63,44,30.20,30.00,15,4,15,0.05
2013-3-8,55.9,40.5,33.1,30.1,27.3,24.8,76,60,32,30.29,29.88,18,6,18,0.00
2013-3-9,68.5,44.0,27.5,30.9,24.2,12.0,88,54,12,30.36,30.23,6,2,6,0.00
2013-3-10,69.1,48.0,27.0,34.7,26.1,21.5,92,51,17,30.28,30.15,13,3,13,0.00
2013-3-11,61.9,51.4,41.9,49.9,39.8,24.1,89,67,35,30.16,29.83,14,4,14,0.00
2013-3-12,58.3,51.5,39.9,54.2,43.4,28.7,99,75,49,29.96,29.73,12,4,12,0.59
2013-3-13,50.4,39.6,30.6,33.0,24.5,18.3,81,56,30,30.06,29.89,16,5,16,0.00
2013-3-14,47.3,36.7,29.7,20.2,16.7,13.8,61,45,27,30.12,30.03,15,6,15,0.00
2013-3-15,60.3,44.7,27.3,34.8,25.4,17.7,74,49,26,30.08,29.75,10,3,10,0.00
2013-3-16,54.9,43.5,36.0,39.4,35.4,32.4,91,74,54,29.91,29.62,8,2,8,0.01
2013-3-17,40.8,36.9,34.3,33.9,28.6,23.6,92,73,53,30.23,29.91,6,2,6,0.00
2013-3-18,36.3,32.9,29.8,32.5,29.5,23.2,99,88,60,30.28,29.86,7,2,7,0.13
2013-3-19,59.7,43.3,32.4,42.7,25.6,-0.6,99,62,12,29.91,29.70,21,5,21,0.20
2013-3-20,54.0,41.8,31.6,29.4,15.2,7.4,79,36,17,29.96,29.74,15,6,15,0.00
2013-3-21,37.9,31.2,25.2,29.2,14.3,7.2,79,51,29,29.88,29.76,16,5,16,0.00
2013-3-22,51.4,35.9,26.4,20.1,16.8,11.8,61,47,27,29.98,29.85,14,6,14,0.00
2013-3-23,57.2,39.8,23.5,25.2,21.3,18.3,82,51,25,30.01,29.58,13,3,13,0.02
2013-3-24,41.5,33.9,26.8,32.5,25.3,20.7,99,72,48,29.98,29.61,11,2,11,0.00
2013-3-25,42.3,34.7,31.6,36.5,33.3,25.6,99,95,77,29.69,29.51,15,1,15,0.32
2013-3-26,50.0,40.0,31.1,39.6,30.9,26.6,99,73,42,29.99,29.69,11,4,11,0.17
2013-3-27,48.9,40.7,32.0,31.6,28.3,23.1,83,62,39,30.12,29.98,21,6,21,0.00
2013-3-28,48.9,41.3,35.1,33.5,30.2,26.8,75,65,51,30.21,30.06,13,5,13,0.00
2013-3-29,58.3,44.6,40.8,31.8,29.9,22.8,68,58,27,30.20,29.81,9,2,9,0.00
2013-3-30,64.2,46.5,29.3,32.0,24.3,8.4,87,49,12,30.22,30.07,9,2,9,0.00
2013-3-31,50.4,45.3,37.9,48.7,39.1,28.4,99,80,52,30.07,29.73,6,2,6,0.15
2013-4-1,61.2,47.5,38.3,46.0,35.7,16.1,99,65,41,29.97,29.73,18,5,18,0.01
2013-4-2,50.4,39.5,29.1,19.3,15.2,9.1,64,39,20,30.16,29.97,15,5,15,0.00
2013-4-3,52.2,38.7,27.7,20.2,15.2,6.2,64,42,17,30.38,30.15,16,5,16,0.00
2013-4-4,52.3,42.9,24.6,25.0,14.6,7.4,67,33,17,30.38,30.03,10,3,11,0.00
2013-4-5,68.9,53.8,34.0,37.8,27.8,17.4,95,47,15,30.03,29.81,14,4,14,0.00
2013-4-6,66.7,57.9,42.3,25.6,21.5,11.4,51,26,14,30.30,29.83,9,6,9,0.00
2013-4-7,76.5,59.1,40.5,44.3,35.1,23.5,66,43,26,30.26,29.93,12,4,12,0.00
2013-4-8,87.1,69.5,50.5,49.5,45.3,38.6,80,45,19,30.06,29.90,13,2,13,0.00
2013-4-9,91.6,74.6,56.3,56.2,51.9,46.8,77,47,24,30.07,29.89,12,3,12,0.00
2013-4-10,93.4,78.8,61.9,59.8,54.7,51.1,69,45,24,29.96,29.75,11,3,11,0.00
2013-4-11,89.1,72.6,56.1,60.5,56.5,51.2,92,61,35,29.88,29.69,15,4,15,0.00
2013-4-12,78.4,58.8,51.4,64.7,56.2,42.5,99,92,62,29.79,29.55,15,5,15,0.60
2013-4-13,73.2,57.7,43.7,42.5,35.0,24.3,89,47,17,29.95,29.79,15,5,15,0.00
2013-4-14,70.9,56.1,40.5,40.9,36.2,31.2,85,50,25,30.14,29.95,8,3,8,0.00
2013-4-15,68.4,60.4,54.3,52.5,48.2,38.8,84,65,47,30.25,30.09,10,3,10,0.00
2013-4-16,81.9,66.3,55.0,61.3,56.8,50.2,92,73,48,30.26,30.06,13,4,13,0.00
2013-4-17,75.0,65.8,57.0,65.8,59.6,54.6,99,82,61,30.20,30.10,10,3,11,0.19
2013-4-18,82.4,67.3,60.4,66.2,59.7,56.5,99,78,54,30.20,29.94,13,4,13,0.04
2013-4-19,77.7,66.0,52.5,67.9,59.0,38.2,99,79,58,29.94,29.56,17,5,17,0.32
2013-4-20,61.2,51.2,42.6,38.2,29.3,19.5,60,44,27,30.34,29.79,20,7,20,0.00
2013-4-21,58.6,46.4,34.5,30.5,25.7,20.1,67,46,25,30.57,30.34,12,4,12,0.00
2013-4-22,61.5,48.3,34.9,38.1,34.0,29.5,91,60,36,30.54,30.36,16,4,16,0.00
2013-4-23,64.6,48.7,36.1,45.2,39.7,33.2,90,72,48,30.38,30.07,11,2,11,0.00
2013-4-24,82.2,61.2,40.8,61.7,50.4,40.6,99,72,39,30.09,29.72,15,3,15,0.04
2013-4-25,70.0,54.8,41.7,44.9,33.0,25.3,70,47,22,30.30,30.04,14,4,14,0.14
2013-4-26,70.0,54.1,39.9,39.8,35.7,32.1,85,53,27,30.45,30.28,9,2,9,0.00
2013-4-27,76.8,62.5,39.0,44.4,38.9,21.3,89,48,24,30.39,30.14,10,2,11,0.00
2013-4-28,75.4,55.1,51.3,51.6,45.1,36.0,95,72,27,30.25,30.10,10,2,11,0.14
2013-4-29,63.0,56.1,52.7,59.6,54.6,49.6,99,95,84,30.11,30.01,9,2,9,0.19
2013-4-30,60.4,56.7,53.8,58.7,55.8,53.5,99,97,88,30.27,30.08,13,2,13,0.02
2013-5-1,75.2,62.6,52.5,55.0,41.5,27.7,99,54,19,30.40,30.27,12,3,12,0.01
2013-5-2,74.8,59.0,41.4,50.1,45.3,40.8,99,64,34,30.41,30.28,13,3,13,0.00
2013-5-3,73.0,58.0,36.1,51.4,45.3,32.6,99,67,33,30.37,29.93,13,3,13,0.00
2013-5-4,72.0,55.7,40.3,47.0,43.4,25.8,94,66,36,30.31,30.14,13,2,13,0.00
2013-5-5,68.7,54.1,41.5,44.1,41.6,39.5,94,65,38,30.23,30.10,12,3,12,0.00
2013-5-6,60.8,53.2,46.2,58.5,50.1,42.8,99,89,79,30.16,30.03,13,3,13,0.02
2013-5-7,62.4,59.8,58.6,62.0,59.6,58.4,99,99,98,30.06,29.91,13,5,13,0.81
2013-5-8,74.1,59.9,50.7,63.0,55.8,50.4,99,87,55,29.99,29.91,8,1,8,0.20
2013-5-9,77.7,61.9,49.3,60.8,54.9,49.0,99,81,49,30.00,29.90,28,2,28,0.01
2013-5-10,89.1,67.6,51.4,65.4,58.6,51.2,99,78,33,30.00,29.84,13,1,13,0.30
2013-5-11,80.6,66.2,59.5,67.9,61.6,53.1,99,87,55,29.88,29.72,8,1,8,0.37
2013-5-12,63.9,57.4,44.8,54.5,37.3,25.8,83,50,28,30.02,29.76,15,5,15,0.00
2013-5-13,61.9,50.5,41.5,35.4,29.7,20.6,76,49,22,30.16,30.01,17,3,17,0.00
2013-5-14,65.7,51.8,33.3,41.0,35.5,31.3,97,59,29,30.20,30.00,6,1,6,0.00
2013-5-15,89.8,70.1,49.6,65.5,53.5,38.7,84,57,42,30.00,29.67,17,2,17,0.00
2013-5-16,79.5,73.3,66.2,66.2,59.3,54.0,91,62,49,29.94,29.75,10,3,10,0.00
2013-5-17,87.3,75.1,55.6,63.6,58.6,49.4,99,60,37,30.11,29.93,7,2,7,0.00
2013-5-18,69.6,64.5,59.5,60.5,57.4,49.1,99,79,48,30.20,30.10,9,3,9,0.00
2013-5-19,74.3,64.8,58.3,67.2,62.4,56.2,99,92,76,30.19,30.06,8,2,8,0.00
2013-5-20,87.1,75.0,62.1,72.0,67.1,61.6,99,79,54,30.09,29.96,8,2,8,0.00
2013-5-21,95.0,78.1,63.0,72.8,68.6,62.7,99,76,45,29.99,29.84,8,1,8,0.00
2013-5-22,97.5,78.4,65.5,74.6,67.8,43.2,99,76,34,30.11,29.80,13,1,13,0.65
2013-5-23,84.0,69.4,63.5,71.1,66.5,63.2,99,91,60,29.89,29.73,6,1,6,0.25
2013-5-24,63.5,55.3,45.9,63.2,46.4,32.1,99,73,53,30.19,29.75,10,4,11,0.01
2013-5-25,67.8,55.0,41.5,41.4,35.7,32.0,73,50,31,30.21,30.08,10,4,10,0.00
2013-5-26,76.5,61.0,46.6,43.6,37.4,28.8,70,45,18,30.23,30.11,7,2,7,0.07
2013-5-27,71.6,59.6,42.8,52.1,45.9,40.7,96,64,36,30.28,30.17,4,1,4,0.00
2013-5-28,84.0,66.5,53.8,69.5,60.5,51.4,99,83,55,30.18,30.02,8,1,8,0.15
2013-5-29,91.0,76.8,62.2,69.4,66.1,61.3,99,73,39,30.10,30.04,5,1,5,0.00
2013-5-30,97.0,81.1,64.8,70.3,67.1,62.8,99,67,34,30.18,30.07,6,1,6,0.00
2013-5-31,96.3,80.8,64.0,70.2,64.8,57.3,99,63,29,30.14,29.99,6,1,6,0.00
2013-6-1,95.2,81.9,66.7,70.7,67.5,64.7,95,64,41,30.03,29.88,10,1,10,0.00
2013-6-2,86.7,74.1,68.7,74.0,68.5,42.1,99,84,59,30.19,29.83,5,1,5,0.52
2013-6-3,83.5,72.7,63.7,73.4,65.0,54.7,99,78,55,29.98,29.84,8,1,8,0.12
2013-6-4,80.1,67.3,54.1,54.8,49.0,41.9,88,55,31,30.13,29.98,9,2,9,0.00
2013-6-5,83.7,68.3,53.6,60.4,56.6,51.8,99,70,38,30.16,30.01,8,2,8,0.00
2013-6-6,68.9,65.0,63.1,65.6,59.5,50.1,99,84,61,30.04,29.84,6,2,6,0.52
2013-6-7,68.7,66.1,63.9,68.4,65.8,63.6,99,99,99,29.84,29.67,4,1,4,0.43
2013-6-8,77.7,71.0,62.6,66.1,62.2,59.6,99,75,58,30.10,29.74,6,2,6,0.00
2013-6-9,83.3,71.4,61.2,70.5,64.8,60.1,99,81,56,30.19,30.07,8,2,8,0.00
2013-6-10,84.4,73.2,67.1,76.9,71.2,66.6,99,94,75,30.08,29.77,10,2,10,0.67
2013-6-11,84.6,73.7,64.6,72.0,65.9,32.6,99,78,30,30.12,29.79,8,3,8,0.01
2013-6-12,91.9,79.0,66.0,71.4,67.9,64.2,99,71,46,29.88,29.79,8,2,8,0.00
2013-6-13,86.7,72.2,67.3,72.1,67.4,56.0,99,86,58,29.79,29.50,8,3,8,0.47
2013-6-14,82.9,71.2,63.0,58.6,55.5,51.5,75,59,34,29.99,29.64,8,2,8,0.00
2013-6-15,82.0,72.4,60.8,61.2,57.6,51.4,84,62,38,30.09,29.98,5,2,5,0.00
2013-6-16,82.8,72.2,62.6,68.7,62.8,56.9,87,73,59,30.03,29.88,7,2,7,0.00
2013-6-17,90.3,78.3,66.0,71.1,67.6,62.8,97,71,50,30.07,29.88,5,1,5,0.00
2013-6-18,78.3,71.3,65.8,71.9,69.2,65.6,99,93,72,29.95,29.77,8,1,8,0.32
2013-6-19,81.9,69.8,62.1,66.1,62.2,58.2,99,79,49,30.14,29.89,7,1,7,0.02
2013-6-20,83.8,71.4,60.4,70.1,63.8,57.6,99,79,52,30.24,30.14,8,1,8,0.00
2013-6-21,88.5,75.0,60.3,64.7,59.0,53.6,86,60,36,30.28,30.19,9,2,9,0.00
2013-6-22,92.3,77.7,62.2,69.5,65.8,59.1,99,70,42,30.24,30.10,6,1,6,0.00
2013-6-23,91.6,78.3,66.7,73.1,70.0,66.5,99,78,50,30.18,30.05,6,1,6,0.00
2013-6-24,97.3,78.7,68.2,74.3,69.7,62.2,99,77,34,30.13,30.02,10,1,10,0.13
2013-6-25,94.6,80.5,66.9,74.0,70.7,62.4,99,75,48,30.04,29.88,10,2,10,0.06
2013-6-26,92.7,77.0,65.5,75.9,69.3,65.2,99,80,48,29.93,29.82,6,1,6,0.00
2013-6-27,92.5,77.0,69.1,76.0,70.9,66.7,99,82,62,30.17,29.61,9,2,9,0.00
2013-6-28,91.8,78.2,68.4,73.4,67.7,62.7,98,72,47,29.63,29.48,10,2,11,0.00
2013-6-29,90.9,77.5,65.8,70.0,64.8,60.1,99,69,38,29.73,29.53,8,2,8,0.07
2013-6-30,93.0,76.5,67.1,75.4,70.5,48.6,99,84,44,29.92,29.69,6,1,6,0.05
2013-7-1,86.4,77.7,71.8,73.5,71.6,68.4,98,82,63,29.96,29.82,10,2,10,0.00
2013-7-2,88.7,78.4,73.4,74.8,72.6,70.6,99,84,61,30.14,29.95,8,2,8,0.00
2013-7-3,88.7,77.7,73.2,76.7,73.5,55.1,99,88,63,30.21,30.13,6,2,6,0.02
2013-7-4,92.8,81.6,71.6,77.6,73.6,71.3,99,78,56,30.23,30.14,7,2,7,0.00
2013-7-5,78.4,74.1,71.2,73.3,72.3,70.9,99,94,84,30.19,30.14,4,0,2,0.00
2013-7-6,96.3,83.7,71.6,75.7,72.8,70.2,99,72,48,30.18,30.04,8,2,8,0.00
2013-7-7,95.0,78.0,69.6,76.3,71.0,69.0,99,81,52,30.09,29.99,8,1,8,0.73
2013-7-8,91.2,77.8,68.2,75.8,69.8,65.8,99,79,47,30.11,30.02,6,1,6,0.01
2013-7-9,89.1,76.8,70.5,77.8,72.4,69.5,99,87,60,30.11,29.98,6,1,6,0.08
2013-7-10,89.1,78.2,71.2,78.6,74.0,68.8,99,88,61,30.00,29.85,6,1,6,0.19
2013-7-11,88.9,78.3,71.6,71.9,69.5,66.4,95,76,53,29.93,29.85,6,1,6,0.00
2013-7-12,76.8,70.5,65.1,69.7,67.4,64.8,99,90,74,30.06,29.91,10,1,10,0.47
2013-7-13,87.8,75.4,68.2,73.5,70.7,67.9,99,86,58,30.25,30.05,7,1,7,0.00
2013-7-14,93.6,81.9,71.2,78.1,73.3,70.9,99,78,50,30.33,30.25,6,1,6,0.00
2013-7-15,97.5,83.3,69.4,76.4,72.9,69.1,99,74,45,30.31,30.19,7,1,7,0.11
2013-7-16,97.3,86.3,73.0,78.3,73.5,69.8,99,69,44,30.26,30.17,8,2,8,0.02
2013-7-17,98.4,85.1,73.8,77.6,73.6,67.1,99,72,39,30.23,30.09,9,1,9,0.00
2013-7-18,100.0,86.3,73.9,79.8,76.3,73.6,99,75,47,30.13,30.00,6,1,6,0.00
2013-7-19,99.9,84.8,73.6,80.2,76.0,57.3,99,77,47,30.26,29.87,6,1,6,0.06
2013-7-20,95.7,81.8,72.0,76.8,72.4,60.1,99,76,46,30.21,29.79,8,1,8,0.00
2013-7-21,91.2,77.3,71.1,76.9,72.5,69.8,99,87,55,29.95,29.88,6,1,6,0.19
2013-7-22,79.5,71.7,69.6,76.0,71.3,69.3,99,99,87,29.95,29.77,8,1,8,0.74
2013-7-23,88.3,79.2,70.3,77.4,70.2,67.1,99,76,54,29.78,29.67,9,3,9,0.12
2013-7-24,86.9,79.6,65.8,70.3,64.9,58.1,86,62,45,29.94,29.67,6,3,6,0.00
2013-7-25,81.9,69.1,58.3,61.1,56.9,51.4,91,68,37,30.04,29.93,9,2,9,0.00
2013-7-26,86.9,72.0,56.7,63.2,59.9,56.4,99,69,40,30.11,30.01,6,1,6,0.00
2013-7-27,85.5,73.2,62.8,73.9,68.2,62.5,99,86,63,30.03,29.90,8,1,8,0.01
2013-7-28,84.4,74.4,65.5,74.8,69.2,65.2,99,85,59,30.00,29.87,6,1,6,0.04
2013-7-29,83.1,72.1,58.3,65.2,58.0,52.8,99,66,38,30.17,30.00,6,2,6,0.00
2013-7-30,85.5,72.5,57.6,65.2,60.5,56.3,97,69,41,30.23,30.13,6,1,6,0.00
2013-7-31,81.9,70.5,62.4,70.3,66.5,62.1,99,88,65,30.14,29.99,6,1,6,0.05
2013-8-1,88.5,74.3,66.9,74.0,69.4,66.6,99,86,58,30.00,29.81,2,0,2,0.12
2013-8-2,88.3,75.8,63.1,70.2,64.0,57.9,99,71,37,29.97,29.88,6,1,6,0.00
2013-8-3,76.8,68.9,65.7,71.7,66.5,62.2,99,92,76,29.98,29.93,6,0,6,0.37
2013-8-4,83.1,72.5,59.2,68.6,59.6,54.1,99,68,39,30.05,29.94,8,2,8,0.01
2013-8-5,84.6,72.7,55.8,60.8,55.1,49.7,99,59,32,30.12,30.00,6,1,6,0.00
2013-8-6,83.5,70.3,63.5,70.9,65.6,59.5,99,86,60,30.06,29.99,7,1,7,0.33
2013-8-7,89.4,75.1,68.2,74.8,71.1,67.9,99,88,59,30.05,29.97,9,1,9,0.34
2013-8-8,83.8,75.9,70.5,78.5,73.7,69.9,99,93,75,30.03,29.95,7,1,7,0.15
2013-8-9,88.0,78.5,72.7,81.4,74.2,65.7,99,88,66,29.99,29.86,14,2,14,0.05
2013-8-10,89.6,75.8,69.6,73.0,68.3,60.7,99,80,41,30.19,29.96,7,0,7,0.00
2013-8-11,90.7,76.9,67.5,72.3,69.1,66.8,99,80,48,30.11,29.98,6,1,6,0.00
2013-8-12,91.2,78.7,67.5,73.7,69.4,65.6,99,76,46,30.02,29.90,8,1,8,0.00
2013-8-13,89.1,76.1,67.8,72.2,69.4,60.7,99,81,51,29.90,29.74,6,1,6,0.20
2013-8-14,78.1,67.1,55.6,60.7,52.7,49.0,84,61,41,30.11,29.85,8,2,8,0.00
2013-8-15,82.0,68.7,51.6,59.5,51.3,44.3,99,60,30,30.20,30.09,7,2,7,0.00
2013-8-16,83.5,76.2,52.0,60.8,53.6,48.7,99,47,37,30.17,30.10,8,3,8,0.00
2013-8-17,82.9,69.5,54.3,61.6,58.8,54.0,99,72,44,30.27,30.12,8,2,8,0.00
2013-8-18,70.5,65.6,61.9,65.3,62.5,58.5,99,90,70,30.25,30.17,8,1,8,0.13
2013-8-19,79.7,68.2,59.4,70.3,65.5,59.1,99,92,71,30.18,30.05,7,1,7,0.01
2013-8-20,90.5,73.7,62.2,71.9,65.7,62.0,99,79,43,30.19,30.09,6,1,6,0.00
2013-8-21,91.9,76.2,64.0,74.8,69.5,63.8,99,82,52,30.20,30.06,6,1,6,0.01
2013-8-22,89.6,77.7,67.6,72.5,68.4,66.2,99,76,49,30.09,29.93,6,2,6,0.00
2013-8-23,73.6,69.0,62.1,70.6,67.8,61.8,99,96,83,30.14,29.95,2,0,2,0.43
2013-8-24,86.2,70.0,59.2,65.7,61.4,57.1,99,78,39,30.33,30.13,6,1,6,0.00
2013-8-25,87.6,70.6,56.8,66.3,61.2,56.6,99,76,42,30.40,30.24,6,1,6,0.00
2013-8-26,90.7,75.4,60.4,66.6,63.8,60.2,99,71,40,30.27,30.01,6,1,6,0.00
2013-8-27,90.9,79.0,69.3,73.5,69.7,65.4,91,74,54,30.01,29.89,7,2,7,0.00
2013-8-28,76.5,73.3,71.4,76.0,72.3,69.5,99,97,82,29.93,29.81,4,0,4,0.35
2013-8-29,88.2,76.1,69.3,74.2,71.1,68.0,99,86,56,30.01,29.85,7,1,7,0.00
2013-8-30,92.1,80.6,65.5,72.5,69.7,65.2,99,73,49,30.03,29.90,7,3,7,0.00
2013-8-31,93.6,86.5,72.9,75.0,72.2,69.7,93,64,49,29.90,29.78,7,4,7,0.00
2013-9-1,94.6,79.3,67.8,75.1,70.7,67.3,99,78,47,29.85,29.75,6,1,6,0.00
2013-9-2,93.7,80.3,69.3,74.5,71.2,67.7,99,76,45,29.81,29.72,6,1,6,0.00
2013-9-3,86.4,75.9,65.1,73.2,62.6,55.3,93,66,37,29.99,29.74,8,2,8,0.00
2013-9-4,87.6,71.3,57.2,60.5,55.9,48.9,98,63,29,30.10,29.99,8,1,8,0.00
2013-9-5,86.0,71.0,57.6,64.7,58.1,52.7,99,67,41,30.14,29.98,7,2,7,0.00
2013-9-6,79.9,64.4,52.0,55.0,50.0,42.5,94,63,29,30.26,30.13,6,1,6,0.00
2013-9-7,87.1,67.8,49.6,58.8,53.0,42.4,99,65,26,30.14,29.93,6,1,6,0.00
2013-9-8,90.5,74.3,62.1,68.0,63.7,57.7,96,72,47,30.06,29.88,8,1,8,0.00
2013-9-9,80.1,68.7,60.3,66.4,59.2,49.0,93,73,52,30.20,30.06,8,1,8,0.00
2013-9-10,96.6,80.1,65.5,73.8,70.3,65.2,99,75,45,30.17,30.06,6,1,6,0.00
2013-9-11,98.6,83.4,71.2,75.7,72.9,68.6,99,74,44,30.16,29.99,6,1,6,0.00
2013-9-12,94.5,79.7,69.8,74.2,68.8,52.1,99,72,41,30.14,29.73,10,2,11,0.00
2013-9-13,79.0,69.1,57.2,66.1,56.7,49.0,87,67,40,29.97,29.72,10,2,11,0.00
2013-9-14,70.7,59.3,47.3,49.0,45.8,42.2,92,64,37,30.16,29.97,7,1,7,0.00
2013-9-15,80.8,63.4,46.0,58.6,52.2,45.6,99,71,36,30.22,30.06,7,1,7,0.00
2013-9-16,71.2,63.2,56.1,62.1,58.0,54.2,99,84,61,30.24,30.02,6,1,6,0.13
2013-9-17,70.3,58.2,46.9,55.3,45.8,39.6,98,67,37,30.43,30.23,8,2,8,0.00
2013-9-18,76.5,58.2,40.6,50.8,46.4,40.4,99,69,35,30.33,30.16,8,1,8,0.00
2013-9-19,80.4,62.6,48.2,60.3,54.6,47.9,99,78,46,30.18,30.06,6,1,6,0.00
2013-9-20,86.2,69.0,54.0,64.6,60.9,53.7,99,78,48,30.07,29.93,8,2,8,0.00
2013-9-21,70.5,64.9,60.1,66.8,63.5,59.8,99,95,84,29.93,29.67,10,2,10,0.46
2013-9-22,75.2,62.5,53.8,64.0,54.5,48.0,99,78,46,29.97,29.73,6,2,6,0.05
2013-9-23,80.1,57.1,48.6,49.4,46.9,43.6,91,70,45,30.26,29.96,8,1,8,0.00
2013-9-24,75.0,56.8,41.2,52.3,47.8,40.9,99,75,44,30.12,29.95,8,1,8,0.00
2013-9-25,78.6,58.8,44.1,53.2,48.6,43.8,99,74,36,30.00,29.88,8,1,8,0.00
2013-9-26,74.7,59.6,46.9,56.0,51.1,46.7,99,77,41,30.07,29.93,9,1,9,0.00
2013-9-27,75.0,59.7,48.6,58.8,54.2,48.3,99,84,54,30.22,30.07,7,1,7,0.00
2013-9-28,68.0,59.4,50.6,59.3,54.6,50.1,99,86,59,30.31,30.20,7,1,7,0.00
2013-9-29,77.0,57.6,45.7,58.8,50.9,45.4,99,82,43,30.21,30.05,10,1,10,0.00
2013-9-30,79.2,62.0,47.1,58.1,52.6,46.9,99,75,41,30.09,29.97,7,1,7,0.00
2013-10-1,84.2,67.5,53.2,64.3,57.7,53.0,99,74,44,30.08,29.97,6,1,6,0.00
2013-10-2,86.5,70.3,55.0,63.7,59.2,54.8,99,71,42,30.09,30.00,7,1,7,0.00
2013-10-3,85.1,70.1,58.3,66.2,62.5,58.0,99,79,50,30.13,30.03,6,1,6,0.00
2013-10-4,89.6,71.9,60.8,69.6,64.3,60.5,99,80,47,30.10,30.01,7,1,7,0.00
2013-10-5,90.5,74.0,63.0,69.5,65.7,62.7,99,78,44,30.10,29.99,6,1,6,0.00
2013-10-6,93.6,75.9,61.5,69.9,64.8,61.2,99,72,36,30.01,29.88,10,2,11,0.00
2013-10-7,73.4,64.3,52.5,70.0,59.6,46.0,99,85,58,30.07,29.71,9,3,9,0.63
2013-10-8,70.7,56.8,44.6,52.4,46.8,44.3,99,72,45,30.29,30.07,9,1,9,0.00
2013-10-9,63.0,53.9,46.8,51.2,48.0,41.8,99,82,48,30.34,30.24,8,1,8,0.07
2013-10-10,54.7,52.6,51.1,54.4,51.9,49.6,99,97,88,30.24,30.03,6,1,6,3.28
2013-10-11,59.9,56.5,53.2,59.4,56.2,53.0,99,99,99,30.03,29.97,5,1,5,1.67
2013-10-12,65.8,60.8,57.6,65.6,60.5,57.3,99,99,93,30.18,30.00,8,1,8,0.33
2013-10-13,58.8,57.6,56.5,58.5,57.4,56.2,99,99,99,30.32,30.17,10,1,10,0.19
2013-10-14,71.4,59.1,52.3,58.2,55.5,52.1,99,89,60,30.34,30.22,8,1,8,0.00
2013-10-15,73.6,58.6,50.2,62.1,53.8,49.9,99,86,52,30.23,30.06,6,1,6,0.00
2013-10-16,74.1,61.6,52.0,62.5,57.8,51.7,99,88,64,30.07,29.89,5,0,5,0.00
2013-10-17,82.4,65.2,58.1,67.7,61.4,49.4,99,89,53,29.89,29.69,13,2,13,0.13
2013-10-18,68.5,57.0,46.0,50.2,44.2,40.3,96,64,40,30.01,29.86,8,3,8,0.00
2013-10-19,75.7,51.9,41.7,56.9,48.2,41.5,99,88,63,29.99,29.75,11,1,11,0.06
2013-10-20,64.2,51.0,39.9,41.6,37.7,34.3,89,63,36,30.08,29.88,10,2,11,0.00
2013-10-21,72.9,52.7,37.2,47.8,41.2,36.7,99,70,30,30.12,29.91,9,1,9,0.00
2013-10-22,65.1,52.3,41.7,50.9,43.4,31.4,96,73,42,29.91,29.82,8,2,8,0.00
2013-10-23,50.5,43.7,37.4,41.0,37.4,34.2,95,79,58,29.90,29.69,6,2,6,0.00
2013-10-24,51.1,41.6,35.6,37.5,32.9,26.8,94,73,44,30.12,29.89,10,3,11,0.00
2013-10-25,53.4,41.8,32.7,34.2,30.5,27.3,87,66,45,30.30,30.12,10,4,11,0.00
2013-10-26,66.9,43.4,28.6,35.3,28.3,24.1,90,60,28,30.29,29.91,10,2,11,0.00
2013-10-27,60.4,49.3,38.1,38.0,33.2,29.8,83,56,35,30.23,29.94,10,3,10,0.00
2013-10-28,66.6,45.8,31.6,41.6,35.6,30.4,96,71,35,30.26,30.11,6,1,6,0.00
2013-10-29,64.6,47.5,34.7,45.8,39.1,34.2,99,76,42,30.38,30.26,7,1,7,0.00
2013-10-30,67.5,56.7,46.6,56.3,50.2,42.3,99,80,61,30.29,30.12,4,1,4,0.04
2013-10-31,69.8,62.2,55.8,61.4,58.3,55.2,99,88,71,30.14,29.70,8,2,8,0.04
2013-11-1,75.9,64.4,50.2,63.3,54.0,44.2,99,73,34,29.70,29.51,15,3,15,0.17
2013-11-2,65.5,52.9,44.4,50.5,43.7,37.1,99,73,44,29.89,29.66,13,3,13,0.00
2013-11-3,59.4,48.3,36.7,40.5,31.6,18.1,82,56,25,30.44,29.88,8,2,8,0.00
2013-11-4,45.0,36.7,27.5,28.3,24.1,20.8,81,62,40,30.61,30.43,8,2,8,0.00
2013-11-5,54.3,44.4,31.1,46.1,35.8,26.3,88,73,54,30.60,30.41,6,1,6,0.00
2013-11-6,75.0,58.7,47.1,54.7,49.5,44.5,99,74,43,30.42,30.00,10,3,10,0.00
2013-11-7,59.7,53.6,41.5,55.5,44.2,23.2,99,72,45,30.07,29.85,15,4,15,0.17
2013-11-8,52.3,41.6,30.4,30.6,25.7,21.8,80,55,33,30.30,30.06,15,4,15,0.00
2013-11-9,60.8,42.4,27.3,34.6,27.9,23.8,92,60,29,30.31,30.00,8,2,8,0.00
2013-11-10,60.8,49.5,39.4,36.9,30.7,26.7,67,50,32,30.13,29.97,17,6,17,0.00
2013-11-11,59.9,46.9,34.2,33.1,28.9,26.3,79,52,30,30.28,29.98,7,2,7,0.00
2013-11-12,52.0,38.3,27.3,38.5,22.7,13.0,78,54,37,30.39,29.97,15,5,15,0.00
2013-11-13,45.1,33.6,24.8,22.6,18.7,14.7,77,55,33,30.47,30.34,10,4,11,0.00
2013-11-14,62.1,39.0,24.4,23.3,16.1,4.2,73,46,10,30.34,30.18,6,2,6,0.00
2013-11-15,63.5,44.9,26.6,36.4,23.9,15.2,82,48,19,30.26,30.14,6,1,6,0.00
2013-11-16,62.8,50.2,40.8,51.2,46.0,36.2,99,86,62,30.28,30.18,10,2,11,0.02
2013-11-17,63.1,57.5,51.3,60.2,55.6,51.0,99,93,79,30.19,29.66,13,4,13,0.01
2013-11-18,67.3,58.0,47.8,60.5,34.9,21.4,93,46,20,29.95,29.65,23,8,23,0.06
2013-11-19,48.4,41.2,32.5,28.1,25.7,24.0,72,54,40,30.36,29.95,13,5,13,0.00
2013-11-20,48.6,34.9,24.8,30.1,22.2,16.5,91,63,32,30.53,30.36,11,2,11,0.00
2013-11-21,50.4,38.1,27.5,39.4,32.4,22.5,93,80,62,30.54,30.33,6,1,6,0.00
2013-11-22,63.5,51.9,41.0,53.8,46.4,38.0,96,82,64,30.33,30.00,10,2,10,0.00
2013-11-23,52.7,40.6,28.4,44.3,26.4,9.7,80,58,39,30.21,30.04,20,6,20,0.00
2013-11-24,31.3,24.8,20.8,10.2,5.6,0.8,56,44,35,30.49,30.21,17,7,17,0.00
2013-11-25,42.6,27.6,16.3,13.0,8.8,4.4,69,47,22,30.52,30.24,10,3,11,0.00
2013-11-26,58.5,33.4,32.0,33.5,27.1,12.8,99,81,42,30.28,29.63,7,2,7,0.96
2013-11-27,39.0,34.6,26.8,37.3,29.6,14.1,99,83,57,30.03,29.55,20,6,20,0.07
2013-11-28,62.1,29.9,23.2,22.8,16.5,11.6,73,58,42,30.43,30.02,18,5,18,0.01
2013-11-29,43.2,30.1,21.7,26.4,20.7,17.3,90,70,43,30.68,30.42,9,2,9,0.00
2013-11-30,36.1,27.3,18.0,23.3,20.2,16.7,96,76,55,30.68,30.32,7,2,7,0.00
2013-12-1,43.0,32.1,19.0,29.3,24.9,17.6,95,76,57,30.32,29.99,5,1,5,0.00
2013-12-2,44.1,38.3,34.5,34.3,31.2,28.1,83,76,65,29.99,29.85,5,1,5,0.00
2013-12-3,59.9,41.0,32.0,42.1,34.6,30.6,96,79,47,29.96,29.85,6,1,6,0.00
2013-12-4,60.4,43.8,31.1,47.6,40.0,30.9,99,88,57,30.06,29.95,7,2,7,0.00
2013-12-5,73.0,55.0,40.8,59.1,52.3,40.6,99,92,61,30.09,29.88,8,1,8,0.01
2013-12-6,58.1,44.5,35.4,57.8,44.2,35.2,99,99,97,30.17,29.85,8,3,8,1.15
2013-12-7,40.8,34.3,27.1,35.2,29.3,21.5,99,83,62,30.52,30.13,10,3,10,0.01
2013-12-8,27.9,25.1,23.7,27.4,22.5,18.3,99,90,75,30.55,30.28,8,2,8,0.00
2013-12-9,38.1,32.0,27.7,36.9,31.6,27.4,99,98,92,30.29,30.00,4,0,4,0.21
2013-12-10,41.2,31.5,25.0,35.5,27.2,15.8,99,85,58,30.19,29.97,15,3,15,0.00
2013-12-11,41.7,26.7,17.6,22.3,16.6,12.5,87,66,44,30.37,30.19,13,2,13,0.00
2013-12-12,33.6,26.3,21.0,21.8,10.0,3.2,76,51,32,30.40,30.20,14,5,14,0.00
2013-12-13,45.3,26.3,14.2,21.7,13.5,3.8,79,60,31,30.27,30.17,7,2,7,0.00
2013-12-14,37.6,31.5,27.3,34.1,29.1,21.4,99,91,72,30.29,29.72,8,2,8,0.13
2013-12-15,41.5,33.7,29.3,37.0,28.5,21.9,99,82,62,29.92,29.63,18,4,18,0.14
2013-12-16,35.2,31.0,28.0,26.6,23.8,20.5,85,74,63,30.15,29.92,13,3,13,0.00
2013-12-17,41.9,33.2,28.0,34.3,29.5,26.1,97,86,71,30.10,29.90,6,2,6,0.00
2013-12-18,40.6,31.8,23.4,27.8,22.2,19.3,99,69,51,30.18,29.98,13,4,13,0.00
2013-12-19,65.3,37.7,22.1,32.0,25.9,18.8,89,66,26,30.16,30.03,4,2,4,0.00
2013-12-20,58.6,46.8,37.2,36.8,32.2,29.2,74,58,38,30.06,29.94,5,1,5,0.00
2013-12-21,72.0,56.6,44.4,59.1,46.5,34.3,88,70,49,29.97,29.83,6,2,6,0.00
2013-12-22,68.0,62.9,57.4,64.7,59.6,55.5,99,89,66,29.97,29.75,12,3,12,0.27
2013-12-23,58.1,50.2,34.2,57.6,46.0,10.2,99,86,66,30.50,29.89,15,3,15,0.35
2013-12-24,40.6,29.9,19.9,25.0,17.9,6.4,81,61,41,30.46,30.18,20,5,20,0.00
2013-12-25,34.3,23.9,17.1,14.4,11.6,8.2,74,60,41,30.55,30.31,7,3,7,0.00
2013-12-26,43.0,31.2,24.4,20.9,16.7,13.4,69,55,38,30.33,30.20,14,3,14,0.00
2013-12-27,54.9,36.2,22.8,24.1,18.1,10.6,82,51,19,30.38,30.27,10,2,11,0.00
2013-12-28,62.2,41.6,26.2,29.4,23.9,20.3,80,53,23,30.30,30.08,9,2,9,0.00
2013-12-29,48.0,43.2,39.4,46.3,38.8,25.8,99,86,48,30.08,29.55,10,3,11,0.96
2013-12-30,46.0,38.2,27.1,40.9,30.5,20.6,86,74,65,30.15,29.80,17,4,17,0.00
2013-12-31,42.3,31.0,23.9,29.4,20.6,16.2,89,66,43,30.29,30.07,21,5,21,0.00
2014-1-1,50.4,33.5,23.0,27.6,23.5,17.0,85,69,37,30.36,30.08,8,2,8,0.00
2014-1-2,33.4,29.1,25.2,30.5,26.8,23.1,99,91,80,30.08,29.63,7,1,7,0.00